N75EU KNUQ-KJAC

Flight info

Callsign N75EU
Flight time 1h 31m
Altitude 45000
Route MOD BAM J32 MLD
Aircraft C750/M-SBDFGHRWXY/S

Departure

Time 2026-04-25 17:29
Airport Moffett Federal Airfield (KNUQ)

Arrival

Time 2026-04-25 19:01
Airport Jackson Hole Airport (KJAC)
Time Latitude Longitude Altitude Speed Heading
2026-04-25 17:03 37.40930 -122.04958 29 ft 0 kts 248°
2026-04-25 17:24 37.40922 -122.04974 30 ft 4 kts 217°
2026-04-25 17:24 37.40899 -122.04966 30 ft 4 kts 125°
2026-04-25 17:24 37.40891 -122.04918 30 ft 6 kts 95°
2026-04-25 17:24 37.40866 -122.04869 31 ft 7 kts 150°
2026-04-25 17:25 37.40796 -122.04832 32 ft 11 kts 159°
2026-04-25 17:25 37.40725 -122.04795 33 ft 10 kts 156°
2026-04-25 17:25 37.40661 -122.04746 34 ft 10 kts 144°
2026-04-25 17:25 37.40598 -122.04691 35 ft 11 kts 145°
2026-04-25 17:26 37.40535 -122.04635 35 ft 11 kts 144°
2026-04-25 17:26 37.40481 -122.04586 36 ft 3 kts 142°
2026-04-25 17:26 37.40479 -122.04584 36 ft 0 kts 142°
2026-04-25 17:28 37.40477 -122.04582 36 ft 2 kts 141°
2026-04-25 17:28 37.40452 -122.04538 37 ft 7 kts 104°
2026-04-25 17:28 37.40462 -122.04475 36 ft 8 kts 53°
2026-04-25 17:29 37.40524 -122.04477 35 ft 11 kts 338°
2026-04-25 17:29 37.40803 -122.04621 32 ft 97 kts 338°
2026-04-25 17:29 37.41719 -122.05090 294 ft 170 kts 336°
2026-04-25 17:29 37.42915 -122.05569 964 ft 191 kts 349°
2026-04-25 17:30 37.44276 -122.05667 1507 ft 200 kts 358°
2026-04-25 17:30 37.45666 -122.05685 2047 ft 203 kts 358°
2026-04-25 17:30 37.47102 -122.05699 2503 ft 208 kts 358°
2026-04-25 17:30 37.48537 -122.05724 2826 ft 209 kts 358°
2026-04-25 17:31 37.49989 -122.05746 2999 ft 209 kts 358°
2026-04-25 17:31 37.51482 -122.05770 2964 ft 214 kts 358°
2026-04-25 17:31 37.52948 -122.05494 3000 ft 216 kts 24°
2026-04-25 17:31 37.53999 -122.04212 3148 ft 215 kts 66°
2026-04-25 17:32 37.54111 -122.02396 3491 ft 209 kts 108°
2026-04-25 17:32 37.53376 -122.00849 3809 ft 208 kts 129°
2026-04-25 17:32 37.52437 -121.99454 4195 ft 211 kts 131°
2026-04-25 17:32 37.51480 -121.98060 4576 ft 215 kts 132°
2026-04-25 17:33 37.50494 -121.96633 4905 ft 218 kts 131°
2026-04-25 17:33 37.49491 -121.95175 5026 ft 222 kts 131°
2026-04-25 17:33 37.48468 -121.93686 4980 ft 223 kts 131°
2026-04-25 17:33 37.47463 -121.92222 5067 ft 221 kts 131°
2026-04-25 17:34 37.46458 -121.90761 5436 ft 222 kts 131°
2026-04-25 17:34 37.45446 -121.89301 6060 ft 222 kts 131°
2026-04-25 17:34 37.44445 -121.87848 6839 ft 225 kts 131°
2026-04-25 17:34 37.43428 -121.86354 7675 ft 225 kts 125°
2026-04-25 17:35 37.43023 -121.84497 8450 ft 228 kts 85°
2026-04-25 17:35 37.43375 -121.82553 9290 ft 242 kts 69°
2026-04-25 17:35 37.44240 -121.80675 10148 ft 263 kts 54°
2026-04-25 17:35 37.45427 -121.78781 10935 ft 288 kts 51°
2026-04-25 17:36 37.46777 -121.76786 11631 ft 314 kts 50°
2026-04-25 17:36 37.48243 -121.74652 12330 ft 336 kts 50°
2026-04-25 17:36 37.49797 -121.72388 13134 ft 353 kts 49°
2026-04-25 17:36 37.51440 -121.70001 14056 ft 365 kts 49°
2026-04-25 17:37 37.53098 -121.67596 15031 ft 372 kts 49°
2026-04-25 17:37 37.54794 -121.65131 16101 ft 376 kts 50°
2026-04-25 17:37 37.56513 -121.62629 17142 ft 379 kts 50°
2026-04-25 17:37 37.58222 -121.60139 18076 ft 384 kts 50°
2026-04-25 17:38 37.59964 -121.57599 18854 ft 388 kts 50°
2026-04-25 17:38 37.61153 -121.55871 19331 ft 392 kts 50°
2026-04-25 17:38 37.63554 -121.52364 20195 ft 400 kts 51°
2026-04-25 17:38 37.65367 -121.49716 20783 ft 407 kts 51°
2026-04-25 17:39 37.67244 -121.46975 21296 ft 415 kts 51°
2026-04-25 17:39 37.69122 -121.44218 21763 ft 424 kts 51°
2026-04-25 17:39 37.71063 -121.41367 22244 ft 432 kts 51°
2026-04-25 17:39 37.73040 -121.38459 22699 ft 439 kts 50°
2026-04-25 17:40 37.75042 -121.35516 23196 ft 446 kts 50°
2026-04-25 17:40 37.77058 -121.32552 23743 ft 451 kts 50°
2026-04-25 17:40 37.79092 -121.29575 24326 ft 454 kts 50°
2026-04-25 17:40 37.81161 -121.26537 24921 ft 458 kts 49°
2026-04-25 17:41 37.83248 -121.23460 25404 ft 463 kts 50°
2026-04-25 17:41 37.85344 -121.20377 25975 ft 465 kts 50°
2026-04-25 17:41 37.87453 -121.17260 26483 ft 468 kts 50°
2026-04-25 17:41 37.89570 -121.14131 27006 ft 471 kts 50°
2026-04-25 17:42 37.91706 -121.10978 27512 ft 473 kts 51°
2026-04-25 17:42 37.93836 -121.07816 27971 ft 477 kts 50°
2026-04-25 17:42 37.96012 -121.04588 28406 ft 481 kts 50°
2026-04-25 17:42 37.98184 -121.01374 28811 ft 485 kts 50°
2026-04-25 17:43 38.00367 -120.98134 29181 ft 490 kts 50°
2026-04-25 17:43 38.02598 -120.94821 29547 ft 494 kts 51°
2026-04-25 17:43 38.04810 -120.91523 29918 ft 498 kts 51°
2026-04-25 17:43 38.07080 -120.88145 30257 ft 502 kts 50°
2026-04-25 17:44 38.09346 -120.84765 30542 ft 506 kts 50°
2026-04-25 17:44 38.11625 -120.81361 30934 ft 508 kts 51°
2026-04-25 17:44 38.13889 -120.77983 31409 ft 507 kts 51°
2026-04-25 17:44 38.16151 -120.74592 31877 ft 507 kts 50°
2026-04-25 17:45 38.18428 -120.71188 32335 ft 506 kts 50°
2026-04-25 17:45 38.19963 -120.68887 32612 ft 507 kts 50°
2026-04-25 17:45 38.22987 -120.64348 33164 ft 507 kts 50°
2026-04-25 17:45 38.25249 -120.60952 33551 ft 508 kts 50°
2026-04-25 17:46 38.27549 -120.57494 34011 ft 511 kts 50°
2026-04-25 17:46 38.29858 -120.54018 34517 ft 511 kts 50°
2026-04-25 17:46 38.32159 -120.50545 35055 ft 510 kts 50°
2026-04-25 17:46 38.34446 -120.47100 35573 ft 509 kts 49°
2026-04-25 17:47 38.36749 -120.43619 36058 ft 508 kts 49°
2026-04-25 17:47 38.39025 -120.40179 36670 ft 507 kts 49°
2026-04-25 17:47 38.41317 -120.36711 37300 ft 506 kts 49°
2026-04-25 17:47 38.43545 -120.33337 37865 ft 504 kts 50°
2026-04-25 17:48 38.48064 -120.26483 38867 ft 503 kts 49°
2026-04-25 17:48 38.50315 -120.23055 39305 ft 503 kts 49°
2026-04-25 17:48 38.52551 -120.19656 39664 ft 503 kts 49°
2026-04-25 17:49 38.54781 -120.16259 40000 ft 503 kts 49°
2026-04-25 17:49 38.57041 -120.12813 40328 ft 503 kts 49°
2026-04-25 17:49 38.59282 -120.09398 40655 ft 503 kts 49°
2026-04-25 17:49 38.61525 -120.05969 40989 ft 502 kts 49°
2026-04-25 17:50 38.63758 -120.02551 41318 ft 501 kts 49°
2026-04-25 17:50 38.65979 -119.99154 41634 ft 500 kts 49°
2026-04-25 17:50 38.68203 -119.95744 41916 ft 500 kts 49°
2026-04-25 17:50 38.70425 -119.92334 42194 ft 500 kts 49°
2026-04-25 17:51 38.72630 -119.88948 42477 ft 499 kts 48°
2026-04-25 17:51 38.74859 -119.85519 42746 ft 499 kts 48°
2026-04-25 17:51 38.77052 -119.82143 42995 ft 498 kts 48°
2026-04-25 17:51 38.79274 -119.78721 43209 ft 499 kts 48°
2026-04-25 17:52 38.81489 -119.75303 43407 ft 500 kts 48°
2026-04-25 17:52 38.82962 -119.73028 43544 ft 501 kts 48°
2026-04-25 17:52 38.85925 -119.68451 43820 ft 501 kts 48°
2026-04-25 17:52 38.88134 -119.65033 44030 ft 502 kts 48°
2026-04-25 17:53 38.90351 -119.61593 44276 ft 501 kts 48°
2026-04-25 17:53 38.92570 -119.58158 44575 ft 500 kts 48°
2026-04-25 17:53 38.94775 -119.54730 44882 ft 498 kts 48°
2026-04-25 17:53 38.96979 -119.51305 45184 ft 497 kts 48°
2026-04-25 17:54 38.99168 -119.47902 45486 ft 495 kts 48°
2026-04-25 17:54 39.01341 -119.44515 45782 ft 494 kts 48°
2026-04-25 17:54 39.03512 -119.41130 46058 ft 492 kts 48°
2026-04-25 17:54 39.05690 -119.37730 46268 ft 492 kts 48°
2026-04-25 17:55 39.07866 -119.34330 46440 ft 493 kts 49°
2026-04-25 17:55 39.10015 -119.30967 46592 ft 493 kts 49°
2026-04-25 17:55 39.12204 -119.27542 46733 ft 494 kts 49°
2026-04-25 17:55 39.14376 -119.24135 46849 ft 495 kts 49°
2026-04-25 17:56 39.16573 -119.20687 46925 ft 497 kts 49°
2026-04-25 17:56 39.20976 -119.13769 46938 ft 504 kts 49°
2026-04-25 17:57 39.25443 -119.06729 46934 ft 512 kts 49°
2026-04-25 17:57 39.29968 -118.99584 46937 ft 519 kts 49°
2026-04-25 17:58 39.34578 -118.92291 46929 ft 526 kts 49°
2026-04-25 17:58 39.39181 -118.84987 46926 ft 524 kts 49°
2026-04-25 17:59 39.43757 -118.77711 46933 ft 522 kts 49°
2026-04-25 17:59 39.48327 -118.70431 46923 ft 520 kts 49°
2026-04-25 18:00 39.52848 -118.63209 46911 ft 519 kts 49°
2026-04-25 18:00 39.57389 -118.55939 46905 ft 519 kts 49°
2026-04-25 18:01 39.61921 -118.48669 46894 ft 519 kts 49°
2026-04-25 18:01 39.66453 -118.41379 46904 ft 520 kts 49°
2026-04-25 18:02 39.70964 -118.34104 46911 ft 523 kts 50°
2026-04-25 18:02 39.75519 -118.26747 46911 ft 526 kts 50°
2026-04-25 18:03 39.80111 -118.19312 46915 ft 527 kts 50°
2026-04-25 18:03 39.84684 -118.11886 46913 ft 528 kts 50°
2026-04-25 18:04 39.89248 -118.04459 46916 ft 529 kts 50°
2026-04-25 18:04 39.93830 -117.96984 46900 ft 530 kts 50°
2026-04-25 18:05 39.98425 -117.89471 46906 ft 530 kts 50°
2026-04-25 18:05 40.03004 -117.81969 46917 ft 530 kts 50°
2026-04-25 18:06 40.07557 -117.74486 46918 ft 530 kts 50°
2026-04-25 18:06 40.12128 -117.66961 46908 ft 530 kts 50°
2026-04-25 18:07 40.16688 -117.59434 46896 ft 530 kts 50°
2026-04-25 18:07 40.21251 -117.51879 46892 ft 530 kts 50°
2026-04-25 18:08 40.25776 -117.44374 46892 ft 529 kts 50°
2026-04-25 18:08 40.30327 -117.36807 46893 ft 527 kts 49°
2026-04-25 18:09 40.34852 -117.29267 46893 ft 526 kts 50°
2026-04-25 18:09 40.39316 -117.21806 46887 ft 525 kts 50°
2026-04-25 18:10 40.43801 -117.14295 46883 ft 525 kts 50°
2026-04-25 18:10 40.48282 -117.06773 46887 ft 525 kts 50°
2026-04-25 18:11 40.52763 -116.99226 46893 ft 525 kts 50°
2026-04-25 18:11 40.57103 -116.91563 46878 ft 526 kts 59°
2026-04-25 18:12 40.60511 -116.83070 46896 ft 527 kts 62°
2026-04-25 18:12 40.63862 -116.74515 46889 ft 527 kts 61°
2026-04-25 18:13 40.67199 -116.65978 46884 ft 528 kts 62°
2026-04-25 18:13 40.70522 -116.57451 46886 ft 528 kts 61°
2026-04-25 18:14 40.75535 -116.44537 46895 ft 529 kts 61°
2026-04-25 18:14 40.78859 -116.35941 46897 ft 530 kts 61°
2026-04-25 18:15 40.82191 -116.27309 46886 ft 530 kts 62°
2026-04-25 18:15 40.85519 -116.18651 46882 ft 531 kts 62°
2026-04-25 18:16 40.88837 -116.09996 46878 ft 531 kts 62°
2026-04-25 18:17 40.93815 -115.96963 46886 ft 530 kts 62°
2026-04-25 18:17 40.97111 -115.88305 46885 ft 530 kts 62°
2026-04-25 18:18 41.00412 -115.79604 46891 ft 530 kts 62°
2026-04-25 18:18 41.03693 -115.70932 46901 ft 530 kts 62°
2026-04-25 18:19 41.06966 -115.62250 46907 ft 530 kts 62°
2026-04-25 18:19 41.10249 -115.53526 46909 ft 531 kts 62°
2026-04-25 18:20 41.13512 -115.44820 46909 ft 531 kts 62°
2026-04-25 18:20 41.16781 -115.36074 46907 ft 531 kts 62°
2026-04-25 18:21 41.20045 -115.27316 46900 ft 531 kts 63°
2026-04-25 18:21 41.23302 -115.18549 46898 ft 531 kts 63°
2026-04-25 18:22 41.26551 -115.09774 46896 ft 531 kts 63°
2026-04-25 18:22 41.29798 -115.00983 46879 ft 531 kts 63°
2026-04-25 18:23 41.33039 -114.92181 46880 ft 531 kts 63°
2026-04-25 18:23 41.36270 -114.83378 46887 ft 531 kts 62°
2026-04-25 18:24 41.39491 -114.74583 46891 ft 531 kts 63°
2026-04-25 18:24 41.42710 -114.65754 46892 ft 531 kts 63°
2026-04-25 18:25 41.45914 -114.56939 46897 ft 531 kts 63°
2026-04-25 18:25 41.49109 -114.48128 46898 ft 531 kts 62°
2026-04-25 18:26 41.52310 -114.39269 46907 ft 530 kts 62°
2026-04-25 18:26 41.55487 -114.30458 46905 ft 530 kts 63°
2026-04-25 18:27 41.58654 -114.21635 46899 ft 530 kts 63°
2026-04-25 18:27 41.61821 -114.12795 46888 ft 530 kts 63°
2026-04-25 18:28 41.65000 -114.03886 46880 ft 530 kts 63°
2026-04-25 18:28 41.68156 -113.95019 46873 ft 530 kts 63°
2026-04-25 18:29 41.72857 -113.81754 46867 ft 530 kts 63°
2026-04-25 18:30 41.79135 -113.63940 46882 ft 529 kts 63°
2026-04-25 18:30 41.82250 -113.55056 46898 ft 529 kts 63°
2026-04-25 18:31 41.85364 -113.46157 46898 ft 530 kts 63°
2026-04-25 18:31 41.88473 -113.37233 46891 ft 530 kts 63°
2026-04-25 18:32 41.91582 -113.28285 46883 ft 530 kts 64°
2026-04-25 18:32 41.93124 -113.23834 46659 ft 535 kts 64°
2026-04-25 18:32 41.94702 -113.19275 46131 ft 546 kts 64°
2026-04-25 18:33 41.96305 -113.14636 45438 ft 558 kts 64°
2026-04-25 18:33 41.97940 -113.09885 44757 ft 563 kts 64°
2026-04-25 18:33 41.99589 -113.05103 44057 ft 565 kts 64°
2026-04-25 18:33 42.01215 -113.00362 43396 ft 566 kts 64°
2026-04-25 18:34 42.02868 -112.95553 42683 ft 568 kts 64°
2026-04-25 18:34 42.04522 -112.90720 41970 ft 571 kts 64°
2026-04-25 18:34 42.06163 -112.85924 41264 ft 572 kts 64°
2026-04-25 18:34 42.07824 -112.81042 40568 ft 574 kts 64°
2026-04-25 18:35 42.09470 -112.76221 39825 ft 576 kts 64°
2026-04-25 18:35 42.11145 -112.71293 39050 ft 579 kts 64°
2026-04-25 18:35 42.12809 -112.66392 38201 ft 582 kts 64°
2026-04-25 18:35 42.14494 -112.61421 37345 ft 585 kts 64°
2026-04-25 18:36 42.16169 -112.56459 36485 ft 589 kts 64°
2026-04-25 18:36 42.17867 -112.51433 35745 ft 591 kts 63°
2026-04-25 18:36 42.19585 -112.46397 35174 ft 593 kts 61°
2026-04-25 18:36 42.21866 -112.41734 34952 ft 588 kts 49°
2026-04-25 18:37 42.26792 -112.32860 34897 ft 593 kts 50°
2026-04-25 18:37 42.31702 -112.23983 34895 ft 591 kts 50°
2026-04-25 18:38 42.36599 -112.15094 34886 ft 592 kts 50°
2026-04-25 18:38 42.41470 -112.06220 34868 ft 591 kts 50°
2026-04-25 18:39 42.46360 -111.97290 34850 ft 591 kts 50°
2026-04-25 18:39 42.51233 -111.88358 34849 ft 590 kts 50°
2026-04-25 18:40 42.56127 -111.79386 34828 ft 590 kts 50°
2026-04-25 18:40 42.58527 -111.74960 34718 ft 588 kts 50°
2026-04-25 18:40 42.60949 -111.70484 34418 ft 588 kts 50°
2026-04-25 18:41 42.63374 -111.66016 33791 ft 594 kts 50°
2026-04-25 18:41 42.65833 -111.61472 33064 ft 596 kts 50°
2026-04-25 18:41 42.68245 -111.56998 32341 ft 596 kts 50°
2026-04-25 18:41 42.70691 -111.52457 31594 ft 594 kts 50°
2026-04-25 18:42 42.73133 -111.47930 30835 ft 593 kts 50°
2026-04-25 18:42 42.74736 -111.44943 30323 ft 591 kts 50°
2026-04-25 18:42 42.77913 -111.39020 29357 ft 578 kts 50°
2026-04-25 18:42 42.80242 -111.34680 28518 ft 569 kts 51°
2026-04-25 18:43 42.82539 -111.30388 27622 ft 560 kts 51°
2026-04-25 18:43 42.84798 -111.26157 26731 ft 550 kts 51°
2026-04-25 18:43 42.87044 -111.21953 25830 ft 542 kts 51°
2026-04-25 18:43 42.89223 -111.17854 25073 ft 530 kts 51°
2026-04-25 18:44 42.91346 -111.13877 24893 ft 513 kts 50°
2026-04-25 18:44 42.93768 -111.10458 24869 ft 503 kts 34°
2026-04-25 18:44 42.96524 -111.07523 24884 ft 510 kts 34°
2026-04-25 18:44 42.99330 -111.04491 24884 ft 515 kts 33°
2026-04-25 18:45 43.02153 -111.01426 24877 ft 520 kts 34°
2026-04-25 18:45 43.04987 -110.98347 24877 ft 524 kts 34°
2026-04-25 18:45 43.07832 -110.95245 24880 ft 526 kts 34°
2026-04-25 18:45 43.10688 -110.92125 24875 ft 526 kts 34°
2026-04-25 18:46 43.13500 -110.89039 24871 ft 524 kts 34°
2026-04-25 18:46 43.16364 -110.85913 24865 ft 522 kts 34°
2026-04-25 18:46 43.19200 -110.82801 24865 ft 521 kts 34°
2026-04-25 18:46 43.21989 -110.79736 24856 ft 520 kts 34°
2026-04-25 18:47 43.24815 -110.76637 24853 ft 519 kts 34°
2026-04-25 18:47 43.27637 -110.73532 24861 ft 518 kts 34°
2026-04-25 18:47 43.30448 -110.70435 24792 ft 520 kts 34°
2026-04-25 18:47 43.33228 -110.67364 24521 ft 513 kts 34°
2026-04-25 18:48 43.35978 -110.64333 24090 ft 502 kts 34°
2026-04-25 18:48 43.38681 -110.61352 23441 ft 496 kts 33°
2026-04-25 18:48 43.41320 -110.58419 22830 ft 485 kts 34°
2026-04-25 18:48 43.43882 -110.55585 22181 ft 469 kts 34°
2026-04-25 18:49 43.46379 -110.52816 21487 ft 449 kts 34°
2026-04-25 18:49 43.48752 -110.50178 20800 ft 432 kts 34°
2026-04-25 18:49 43.51034 -110.47646 20172 ft 416 kts 34°
2026-04-25 18:49 43.53244 -110.45184 19659 ft 399 kts 33°
2026-04-25 18:50 43.55352 -110.42835 19198 ft 384 kts 33°
2026-04-25 18:50 43.57373 -110.40589 18803 ft 372 kts 33°
2026-04-25 18:50 43.59364 -110.38358 18396 ft 361 kts 33°
2026-04-25 18:50 43.61284 -110.36226 18007 ft 352 kts 34°
2026-04-25 18:51 43.63158 -110.34133 17670 ft 343 kts 34°
2026-04-25 18:51 43.64390 -110.32752 17438 ft 338 kts 35°
2026-04-25 18:51 43.66805 -110.30093 16970 ft 328 kts 30°
2026-04-25 18:51 43.68839 -110.29015 16618 ft 308 kts
2026-04-25 18:52 43.70879 -110.29282 16315 ft 291 kts 340°
2026-04-25 18:52 43.72844 -110.29964 15928 ft 290 kts 341°
2026-04-25 18:52 43.74773 -110.30652 15500 ft 288 kts 341°
2026-04-25 18:52 43.76719 -110.31353 15048 ft 285 kts 341°
2026-04-25 18:53 43.78612 -110.32032 14610 ft 283 kts 342°
2026-04-25 18:53 43.80489 -110.32768 14157 ft 279 kts 334°
2026-04-25 18:53 43.81939 -110.34397 13707 ft 267 kts 300°
2026-04-25 18:53 43.82498 -110.36785 13280 ft 259 kts 270°
2026-04-25 18:54 43.82249 -110.41672 12537 ft 252 kts 264°
2026-04-25 18:54 43.82083 -110.44051 12202 ft 248 kts 264°
2026-04-25 18:54 43.81917 -110.46417 11846 ft 247 kts 264°
2026-04-25 18:55 43.81752 -110.48738 11533 ft 243 kts 263°
2026-04-25 18:55 43.81588 -110.51039 11226 ft 240 kts 263°
2026-04-25 18:55 43.81349 -110.53317 10901 ft 236 kts 252°
2026-04-25 18:55 43.80681 -110.55339 10615 ft 233 kts 244°
2026-04-25 18:56 43.79985 -110.57359 10350 ft 229 kts 245°
2026-04-25 18:56 43.79313 -110.59321 10096 ft 226 kts 245°
2026-04-25 18:56 43.78634 -110.61288 9837 ft 224 kts 243°
2026-04-25 18:56 43.77625 -110.62875 9581 ft 221 kts 218°
2026-04-25 18:57 43.76416 -110.64150 9339 ft 219 kts 219°
2026-04-25 18:57 43.75246 -110.65434 9174 ft 207 kts 218°
2026-04-25 18:57 43.74146 -110.66632 8932 ft 197 kts 218°
2026-04-25 18:57 43.73444 -110.67392 8756 ft 193 kts 216°
2026-04-25 18:58 43.71835 -110.68368 8439 ft 185 kts 198°
2026-04-25 18:58 43.69469 -110.69503 8106 ft 176 kts 198°
2026-04-25 18:58 43.68359 -110.70050 7862 ft 163 kts 199°
2026-04-25 18:59 43.66379 -110.71039 7452 ft 140 kts 199°
2026-04-25 18:59 43.64615 -110.71893 7089 ft 129 kts 198°
2026-04-25 19:00 43.62927 -110.72710 6757 ft 130 kts 198°
2026-04-25 19:00 43.62073 -110.73127 6585 ft 129 kts 199°
2026-04-25 19:01 43.60660 -110.73811 6429 ft 54 kts 199°
2026-04-25 19:01 43.60360 -110.73957 6423 ft 40 kts 197°
2026-04-25 19:01 43.60120 -110.74075 6417 ft 32 kts 200°
2026-04-25 19:01 43.59956 -110.74133 6413 ft 18 kts 162°
2026-04-25 19:02 43.59981 -110.73978 6416 ft 9 kts 40°
2026-04-25 19:02 43.59983 -110.73891 6416 ft 9 kts 121°
2026-04-25 19:02 43.59950 -110.73870 6416 ft 3 kts 195°